Flag for Switzerland Weather past 2 weeks in Montreux, Vaud, Switzerland

Now
59 °F

Cool.


Feels Like: 57 °F
Forecast: 52 / 64 °F
Wind: 12 mph from Southeast

Location: Aigle

Current Time: May 3, 2015 at 1:58:16 PM

Latest Report: May 3, 2015 at 1:00 PM


Visibility: N/A

Pressure: 29.84 "Hg

Humidity: 83%

Dew point: 54 °F

Location of MontreuxLocation

Historic Weather in Montreux — Graph

°F

Montreux temperature yesterday

Maximum temperature yesterday: 65 °F (at 2:00 PM)
Minimum temperature yesterday: 50 °F (at 4:00 AM)
Average temperature yesterday: 56 °F

Past Weeks' High & Low Weather Summary

 TemperatureHumidityPressure
High70 °F (Apr 22, 6:00 PM)97% (Apr 27, 2:00 AM)30.33 "Hg (Apr 27, 2:00 AM)
Low36 °F (Apr 29, 6:00 AM)31% (Apr 24, 6:00 PM)29.44 "Hg (Apr 27, 2:00 PM)
Average53 °F74%29.97 "Hg
* Reported Apr 18 12:00 Noon — May 3 12:00 Noon, Montreux, Weather by CustomWeather, © 2015

Note: Actual official high and low records may vary slightly from our data, if they occured in-between our weather recording intervals... More about our weather records

Advertising

Montreux weather history for previous 24 hours

 ConditionsComfort  
Time TempWeatherWind HumidityBarometerVisibility
12:00 PM
Sun, May 3
56 °FCool.18 mph87%29.84 "HgN/A
11:00 AM55 °FRain. Overcast.16 mph90%29.86 "Hg2 mi
10:00 AM54 °FCool.14 mph87%29.85 "HgN/A
9:00 AM54 °FCool.17 mph88%29.86 "HgN/A
8:00 AM53 °FLight rain. Overcast.16 mph89%29.86 "Hg2 mi
7:00 AM53 °FCool.13 mph91%29.86 "HgN/A
6:00 AM53 °FCool.8 mph94%29.86 "HgN/A
5:00 AM53 °FRain. Overcast.7 mph88%29.86 "Hg4 mi
4:00 AM53 °FCool.12 mph90%29.87 "HgN/A
3:00 AM53 °FCool.10 mph88%29.87 "HgN/A
2:00 AM54 °FCool.16 mph86%29.86 "HgN/A
1:00 AM54 °FCool.20 mph88%29.89 "HgN/A
12:00 AM54 °FCool.17 mph90%29.89 "HgN/A
11:00 PM
Sat, May 2
54 °FCool.15 mph86%29.90 "HgN/A
10:00 PM55 °FCool.17 mph83%29.89 "HgN/A
9:00 PM55 °FCool.13 mph88%29.88 "HgN/A
8:00 PM55 °FRain. Low clouds.8 mph90%29.89 "Hg6 mi
7:00 PM56 °FCool.6 mph91%29.90 "HgN/A
6:00 PM56 °FCool.7 mph90%29.91 "HgN/A
5:00 PM58 °FCool.5 mph84%29.91 "HgN/A
4:00 PM63 °FMild.6 mph68%29.85 "HgN/A
3:00 PM64 °FMild.10 mph63%29.84 "HgN/A
2:00 PM65 °FPartly sunny.9 mph67%29.84 "Hg22 mi
1:00 PM64 °FMild.7 mph64%29.85 "HgN/A
Weather by CustomWeather, © 2015

See weather overviewHow to use our weather pages